Hourly Data Report for August 13, 2000

SHERBROOKE A
QUEBEC

45°26'00.000" N
71°41'00.000" W
241.40 m
7028124
71610
YSC

Download Data

Hourly Data (August 2000)
Hourly Data Report for August 13, 2000
TIME
LST
Temp Definition
°C
Dew Point Definition
°C
Rel Hum Definition
%
Precip. Amount Definition
mm

Wind Dir Definition
10's deg

Wind Spd Definition
km/h
Visibility Definition
km
Stn Press Definition
kPa
Hmdx Definition


Wind Chill Definition


Weather Definition


00:00 12.5 11.3 92   8 7 15.0 98.92      
01:00 11.2 10.6 96   6 4 15.0 98.92      
02:00 10.4 10.1 98   12 7 15.0 98.92      
03:00 10.4 10.0 97   9 6 15.0 98.88      
04:00 10.4 10.0 97   10 7 15.0 98.92      
05:00 11.1 10.7 97   8 9 15.0 98.95      
06:00 11.7 10.9 95   8 9 15.0 98.95      
07:00 13.5 11.7 89   7 9 24.1 98.95     Mainly Clear
08:00 17.4 13.5 78   6 6 24.1 98.95     Mainly Clear
09:00 20.5 13.8 65   4 6 24.1 98.92     Mainly Clear
10:00 22.5 12.2 52     0 24.1 98.88 25   Mainly Clear
11:00 23.4 13.5 54   5 9 24.1 98.85 26   Mainly Clear
12:00 23.1 13.8 56   5 4 24.1 98.79 26   Mostly Cloudy
13:00 24.3 13.2 50     0 24.1 98.75 27   Mostly Cloudy
14:00 24.1 14.6 55   15 9 24.1 98.79 28   Mostly Cloudy
15:00 24.8 13.8 50   16 17 24.1 98.79 28   Mostly Cloudy
16:00 23.2 13.4 54   15 9 24.1 98.72 26   Mostly Cloudy
17:00 23.8 14.1 55   16 7 15.0 98.72 27    
18:00 22.4 13.4 57   17 7 15.0 98.72 25    
19:00 19.5 15.1 76     0 15.0 98.72      
20:00 15.8 13.5 86   12 6 15.0 98.75      
21:00 15.9 13.8 87   10 7 15.0 98.75      
22:00 13.9 13.5 97   3 6 15.0 98.79      
23:00 14.9 13.6 92   9 7 15.0 98.79      

Notes on Data Quality.

Legend

  • E = Estimated
  • M = Missing
  • NA = Not Available*
  • [empty] = Indicates an unobserved value
Date modified: